CEST,Max TemperatureF,Mean TemperatureF,Min TemperatureF,Max Dew PointF,MeanDew PointF,Min DewpointF,Max Humidity, Mean Humidity, Min Humidity, Max Sea Level PressureIn, Mean Sea Level PressureIn, Min Sea Level PressureIn, Max VisibilityMiles, Mean VisibilityMiles, Min VisibilityMiles, Max Wind SpeedMPH, Mean Wind SpeedMPH, Max Gust SpeedMPH,PrecipitationIn, CloudCover, Events, WindDirDegrees
2013-9-1,75,65,55,59,54,48,100,71,50,30.15,30.08,30.06,6,6,6,21,6,,0.00,4,,292
2013-9-2,69,60,50,50,45,41,88,60,37,30.21,30.17,30.12,6,6,6,20,11,,0.00,3,,279
2013-9-3,75,68,59,59,52,45,77,61,44,30.21,30.10,30.06,6,6,6,29,19,37,0.00,5,,290
2013-9-4,75,60,44,52,46,39,100,64,29,30.27,30.23,30.18,,,,9,4,,0.00,,,324
2013-9-5,75,60,46,52,47,45,94,63,34,30.18,30.11,30.04,,,,8,2,,0.00,,,88
2013-9-6,75,63,51,50,46,45,77,54,34,30.09,30.05,30.01,,,,12,7,,0.00,,,83
2013-9-7,78,62,46,48,44,41,87,55,26,30.18,30.12,30.06,,,,9,4,,0.00,,,337
2013-9-8,78,61,44,50,46,43,94,56,28,30.24,30.18,30.12,,,,9,4,,0.00,,,125
2013-9-9,64,60,57,59,52,43,100,76,55,30.12,30.08,30.04,6,5,0,12,5,,0.00,6,Fog-Rain,123
2013-9-10,69,60,51,63,57,52,100,90,64,30.12,30.06,29.98,6,3,0,10,4,,0.00,5,Fog-Rain,118
2013-9-11,66,58,51,59,55,46,100,88,52,29.98,29.95,29.92,6,4,2,15,7,,0.00,7,Rain,302
2013-9-12,68,59,50,55,50,45,100,77,43,29.98,29.95,29.92,6,6,6,12,3,,0.00,5,Rain,253
2013-9-13,66,60,53,54,49,46,94,75,49,30.01,30.00,29.98,6,6,6,18,10,,0.00,5,Rain,279
2013-9-14,59,56,51,55,53,50,100,94,88,30.01,29.94,29.89,6,5,2,16,12,,0.00,7,Rain,258
2013-9-15,71,56,42,59,54,43,100,84,53,29.95,29.88,29.77,6,4,2,12,4,,0.00,3,Fog,211
2013-9-16,73,63,53,61,57,54,100,83,53,29.77,29.69,29.56,6,6,6,7,3,,0.00,3,,198
2013-9-17,62,55,48,61,51,39,100,85,66,29.68,29.53,29.44,6,6,4,33,12,46,0.00,6,Rain,281
2013-9-18,60,51,42,52,45,39,100,74,51,29.68,29.64,29.56,6,6,6,17,11,,0.00,5,,224
2013-9-19,60,56,51,55,47,39,100,71,45,29.92,29.73,29.56,6,6,6,29,11,38,0.00,5,,284
2013-9-20,64,54,44,52,46,41,93,71,48,30.04,29.99,29.92,6,6,6,16,9,,0.00,4,Rain,277
2013-9-21,68,59,48,54,51,48,100,80,52,30.24,30.12,30.04,6,6,6,18,11,,0.00,3,,285
2013-9-22,64,50,37,52,46,37,100,78,49,30.30,30.26,30.18,6,5,2,9,3,,0.00,5,Fog,259
2013-9-23,68,59,50,55,51,46,88,74,60,30.18,30.05,29.95,6,6,6,28,13,38,0.00,5,,280
2013-9-24,68,62,53,54,51,48,82,68,59,29.95,29.93,29.92,6,6,6,24,18,,0.00,3,,287
2013-9-25,66,55,44,52,48,45,100,73,52,30.01,29.95,29.92,6,6,6,14,6,,0.00,5,,122
2013-9-26,71,60,48,59,52,45,94,78,56,29.95,29.86,29.80,6,6,6,24,6,,0.00,4,Rain,257
2013-9-27,59,50,41,54,45,41,100,81,55,30.09,30.04,29.95,6,6,4,12,6,,0.00,4,Fog,206
2013-9-28,62,48,35,46,41,36,100,75,42,30.04,30.00,29.95,6,5,2,6,3,,0.00,2,,317
2013-9-29,60,52,44,41,38,36,87,59,42,30.01,29.98,29.92,6,6,6,17,9,25,0.00,6,,66
2013-9-30,60,55,50,41,38,36,62,54,45,29.92,29.84,29.80,6,6,6,22,12,,0.00,6,,53